Find Starlink 30758

NORAD ID: 58133 Int'l Des: 2023-162 Owner: SPXS Country: US Constellation: starlink operational
LEOCIRCULAR

当前视图

正在加载3D地球...

关于 Starlink 30758

正在加载描述...

即将过境

Passes for default location (London). Set your location on the main map for personalized predictions.

高度历史

Loading altitude history...

两行轨道根数

1 58133U 23162R 26158.78071870 .00002067 00000-0 84630-4 0 9994
2 58133 43.0044 340.4436 0001400 264.0286 96.0406 15.27573345146125
Epoch: Jun 7, 2026 • Age: 7 hours

当前状态

高度 494.2 km
速度 7.62 km/s
星下点 -39.92°S, 66.17°W
发射日期 Oct 22, 2023
运行时间 2.6 years
类型 internet

技术详情

分类 Payload
质量 730.00 kg
干质量 700.00 kg
总质量 730.00 kg
长度 0.30 m
直径 4.10 m
跨度 29.00 m
形状 Box + pan
制造商 SPXS
平台类型 Starlink V2M
阶段状态 In Orbit
所有者/国家 SPXS/US

Most Searched